This is the latest recevied weather packets stored in our database for station/object N5YHM-13. If no packets are shown the sender has not sent any weather packets the latest 10 day(s).
| Time | Temp. | Humidity | Pressure | Rain* | Wind** | Luminosity | Snow |
|---|---|---|---|---|---|---|---|
| 1787758169 | 29.44° C | 86% | 1018.7 hPa | 0 mm | - | 28 W/m² | - |
| 1787757865 | 29.44° C | 85% | 1018.8 hPa | 0 mm | - | 26 W/m² | - |
| 1787757560 | 28.89° C | 88% | 1018.5 hPa | 0 mm | - | 41 W/m² | - |
| 1787757260 | 28.33° C | 90% | 1018.7 hPa | 0 mm | - | 21 W/m² | - |
| 1787756958 | 27.78° C | 93% | 1018.6 hPa | 0 mm | - | 19 W/m² | - |
| 1787756654 | 27.22° C | 95% | 1018.7 hPa | 0 mm | - | 16 W/m² | - |
| 1787756353 | 26.67° C | 95% | 1018.6 hPa | 0 mm | - | 14 W/m² | - |
| 1787756048 | 26.67° C | 96% | 1018.5 hPa | 0 mm | - | 16 W/m² | - |
| 1787755743 | 26.11° C | 97% | 1018.6 hPa | 0 mm | - | 13 W/m² | - |
| 1787755437 | 26.11° C | 99% | 1018.8 hPa | 0 mm | - | 24 W/m² | - |
| 1787755137 | 26.11° C | 99% | 1018.5 hPa | 0 mm | - | 29 W/m² | - |
| 1787754826 | 25.56° C | 99% | 1018.6 hPa | 0 mm | - | 35 W/m² | - |
| 1787754524 | 25.56° C | 99% | 1018.4 hPa | 0 mm | - | 17 W/m² | - |
| 1787754218 | 25° C | 99% | 1018.4 hPa | 0 mm | - | 15 W/m² | - |
| 1787753912 | 25° C | 99% | 1018.4 hPa | 0 mm | - | 71 W/m² | - |
| 1787753607 | 25° C | 99% | 1018.3 hPa | 0 mm | - | 13 W/m² | - |
| 1787753305 | 25° C | 99% | 1018.4 hPa | 0 mm | - | 11 W/m² | - |
| 1787753000 | 25° C | 99% | 1018.2 hPa | 0 mm | - | 16 W/m² | - |
| 1787752699 | 25° C | 99% | 1018.3 hPa | 0 mm | - | 20 W/m² | - |
| 1787752395 | 24.44° C | 99% | 1018.5 hPa | 0 mm | - | 28 W/m² | - |
| 1787752094 | 24.44° C | 99% | 1018.3 hPa | 0 mm | - | 11 W/m² | - |
| 1787751789 | 24.44° C | 99% | 1018.2 hPa | 0 mm | - | 10 W/m² | - |
| 1787751483 | 24.44° C | 99% | 1018.3 hPa | 0 mm | - | 10 W/m² | - |
| 1787751179 | 23.89° C | 99% | 1018.3 hPa | 0 mm | - | 10 W/m² | - |
| 1787750874 | 23.89° C | 99% | 1018.5 hPa | 0 mm | - | 12 W/m² | - |
* Rain latest hour (hover to see other rain measurements)
** Current wind speed in m/s (hover to see current wind gust speed)